LEGION 2 (59626 NORAD) Tracking and Keplerian Element Data

This shows tracking and keplerian element data for the satellite.

Feedback or suggestion? Click here.




ElementValue
Catalog59626
NameLEGION 2
Epoch Orbit547
Epoch Day159.91261089
Epoch Year2024
RAAN231.0104
Inclination97.5763
Eccentricity0.000362
Argument of Perigee65.6109
Mean Anonmoly294.5502
Mean Motion15.16887592
Decay Rate0.00010574
L11 59626U 24081B 24159.91261089 .00010574 00000+0 53987-3 0 9991
L22 59626 97.5763 231.0104 0003620 65.6109 294.5502 15.16887592 5471



Live tracking and technical data element details for LEGION 2 (NORAD 59626). LEGION 2 can be tracked NOW for your location showing map with azimuth and elevation plus other details from your city location.







IsCatalogInMostPopularTable: catalog: 59626, numindb: 38
Update: records affected: 1



GetName: 59626 LEGION 2

Hit Count: updated at: Fri, 14 Jun 2024 17:50:16 GMT